When you browse on this site, cookies collect data to enhance your experience and personalize the content and advertising you see.
Visit our Privacy Policy to learn more. By continuing to use the site, you agree to this use of cookies and data.
  • In Hungary
  • List of Countries
  • For 7 days
  • Water Temperature
  • Satellite Maps
  • Weather Map
  • News
  • Weather Widgets
  • user-avatar
    Login

    Hourly Weather Almeirim

    Today, 23 July, Tuesday

    Time Temperature Precipitation Wind Pressure Humidity
    00:00 +18°C° 0.1 mm 2 mps 760 mmHg 93%
    01:00 +18°C° 0.1 mm 2 mps 759 mmHg 93%
    02:00 +19°C° 0.1 mm 1 mps 759 mmHg 94%
    03:00 +19°C° 0 mm 1 mps 759 mmHg 94%
    04:00 +18°C° 0 mm 2 mps 759 mmHg 94%
    05:00 +18°C° 0 mm 2 mps 760 mmHg 94%
    06:00 +20°C° 0 mm 2 mps 760 mmHg 84%
    07:00 +24°C° 0 mm 1 mps 760 mmHg 73%
    08:00 +26°C° 0 mm 1 mps 760 mmHg 63%
    09:00 +29°C° 0 mm 2 mps 760 mmHg 53%
    10:00 +31°C° 0 mm 2 mps 760 mmHg 42%
    11:00 +35°C° 0 mm 2 mps 760 mmHg 32%
    12:00 +35°C° 0 mm 4 mps 760 mmHg 32%
    13:00 +35°C° 0 mm 5 mps 759 mmHg 31%
    14:00 +35°C° 0 mm 6 mps 759 mmHg 31%
    15:00 +33°C° 0 mm 6 mps 759 mmHg 34%
    16:00 +32°C° 0 mm 6 mps 759 mmHg 38%
    17:00 +29°C° 0 mm 6 mps 759 mmHg 41%
    18:00 +27°C° 0 mm 5 mps 759 mmHg 50%
    19:00 +23°C° 0 mm 4 mps 759 mmHg 60%
    20:00 +21°C° 0 mm 3 mps 759 mmHg 69%
    21:00 +20°C° 0 mm 3 mps 760 mmHg 71%
    22:00 +20°C° 0 mm 3 mps 760 mmHg 73%
    23:00 +19°C° 0 mm 3 mps 760 mmHg 75%

    Tomorrow, 24 July, Wednesday

    Time Temperature Precipitation Wind Pressure Humidity
    00:00 +19°C° 0 mm 3 mps 759 mmHg 77%
    01:00 +18°C° 0 mm 2 mps 759 mmHg 80%
    02:00 +17°C° 0 mm 2 mps 759 mmHg 83%
    03:00 +17°C° 0 mm 2 mps 759 mmHg 83%
    04:00 +18°C° 0 mm 1 mps 759 mmHg 83%
    05:00 +18°C° 0 mm 1 mps 759 mmHg 83%
    06:00 +21°C° 0 mm 1 mps 759 mmHg 69%
    07:00 +25°C° 0 mm 1 mps 759 mmHg 55%
    08:00 +28°C° 0 mm 2 mps 759 mmHg 41%
    09:00 +30°C° 0 mm 2 mps 759 mmHg 35%
    10:00 +34°C° 0 mm 2 mps 759 mmHg 28%
    11:00 +36°C° 0 mm 2 mps 758 mmHg 21%
    12:00 +37°C° 0 mm 3 mps 758 mmHg 21%
    13:00 +37°C° 0 mm 4 mps 758 mmHg 21%
    14:00 +38°C° 0 mm 4 mps 757 mmHg 21%
    15:00 +36°C° 0 mm 5 mps 757 mmHg 27%
    16:00 +34°C° 0 mm 5 mps 757 mmHg 33%
    17:00 +30°C° 0 mm 5 mps 757 mmHg 39%
    18:00 +27°C° 0 mm 4 mps 758 mmHg 55%
    19:00 +25°C° 0 mm 4 mps 758 mmHg 70%
    20:00 +21°C° 0 mm 3 mps 758 mmHg 86%
    21:00 +20°C° 0 mm 2 mps 758 mmHg 90%
    22:00 +21°C° 0 mm 1 mps 758 mmHg 93%
    23:00 +20°C° 0 mm 1 mps 758 mmHg 96%

    Day after tomorrow, 25 July, Thursday

    Time Temperature Precipitation Wind Pressure Humidity
    00:00 +20°C° 0 mm 1 mps 758 mmHg 97%
    01:00 +20°C° 0 mm 1 mps 758 mmHg 97%
    02:00 +20°C° 0 mm 1 mps 758 mmHg 97%
    03:00 +20°C° 0 mm 1 mps 758 mmHg 96%
    04:00 +21°C° 0 mm 1 mps 758 mmHg 95%
    05:00 +21°C° 0 mm 1 mps 759 mmHg 94%
    06:00 +22°C° 0 mm 1 mps 759 mmHg 88%
    07:00 +23°C° 0 mm 1 mps 759 mmHg 82%
    08:00 +25°C° 0 mm 1 mps 759 mmHg 76%
    09:00 +27°C° 0 mm 2 mps 759 mmHg 65%
    10:00 +29°C° 0 mm 2 mps 759 mmHg 55%
    11:00 +31°C° 0 mm 3 mps 759 mmHg 44%
    12:00 +33°C° 0 mm 4 mps 758 mmHg 41%
    13:00 +34°C° 0 mm 4 mps 758 mmHg 37%
    14:00 +35°C° 0 mm 5 mps 758 mmHg 34%
    15:00 +32°C° 0 mm 5 mps 758 mmHg 44%
    16:00 +29°C° 0 mm 6 mps 758 mmHg 54%
    17:00 +27°C° 0 mm 6 mps 758 mmHg 65%
    18:00 +24°C° 0 mm 6 mps 759 mmHg 70%
    19:00 +22°C° 0 mm 5 mps 759 mmHg 75%
    20:00 +21°C° 0 mm 4 mps 760 mmHg 80%
    21:00 +20°C° 0 mm 4 mps 760 mmHg 84%
    22:00 +19°C° 0 mm 4 mps 760 mmHg 88%
    23:00 +18°C° 0 mm 3 mps 760 mmHg 91%

    26 July, Friday

    Time Temperature Precipitation Wind Pressure Humidity
    00:00 +17°C° 0 mm 3 mps 760 mmHg 92%
    01:00 +17°C° 0 mm 3 mps 760 mmHg 93%
    02:00 +16°C° 0 mm 3 mps 760 mmHg 94%
    03:00 +16°C° 0 mm 3 mps 760 mmHg 95%
    04:00 +16°C° 0 mm 2 mps 760 mmHg 95%
    05:00 +16°C° 0 mm 2 mps 760 mmHg 96%
    06:00 +18°C° 0 mm 3 mps 760 mmHg 84%
    07:00 +21°C° 0 mm 4 mps 761 mmHg 71%
    08:00 +23°C° 0 mm 5 mps 761 mmHg 59%
    09:00 +25°C° 0 mm 5 mps 761 mmHg 54%
    10:00 +27°C° 0 mm 6 mps 761 mmHg 49%
    11:00 +28°C° 0 mm 7 mps 760 mmHg 44%
    12:00 +28°C° 0 mm 7 mps 760 mmHg 43%
    13:00 +28°C° 0 mm 7 mps 760 mmHg 43%
    14:00 +28°C° 0 mm 8 mps 760 mmHg 42%
    15:00 +26°C° 0 mm 8 mps 760 mmHg 47%
    16:00 +24°C° 0 mm 7 mps 760 mmHg 51%
    17:00 +23°C° 0 mm 7 mps 760 mmHg 55%
    18:00 +21°C° 0 mm 6 mps 760 mmHg 62%
    19:00 +19°C° 0 mm 5 mps 761 mmHg 70%
    20:00 +17°C° 0 mm 4 mps 761 mmHg 77%
    21:00 +17°C° 0 mm 4 mps 761 mmHg 79%
    22:00 +17°C° 0 mm 4 mps 761 mmHg 81%
    23:00 +17°C° 0 mm 4 mps 761 mmHg 83%

    27 July, Saturday

    Time Temperature Precipitation Wind Pressure Humidity
    00:00 +16°C° 0 mm 3 mps 761 mmHg 85%
    01:00 +16°C° 0 mm 3 mps 761 mmHg 87%
    02:00 +16°C° 0 mm 3 mps 760 mmHg 89%
    03:00 +16°C° 0 mm 2 mps 760 mmHg 90%
    04:00 +16°C° 0 mm 2 mps 760 mmHg 91%
    05:00 +16°C° 0 mm 2 mps 760 mmHg 92%
    06:00 +18°C° 0 mm 2 mps 760 mmHg 80%
    07:00 +21°C° 0 mm 3 mps 760 mmHg 68%
    08:00 +24°C° 0 mm 3 mps 760 mmHg 56%
    09:00 +25°C° 0 mm 3 mps 760 mmHg 59%
    10:00 +25°C° 0 mm 4 mps 760 mmHg 61%
    11:00 +25°C° 0 mm 4 mps 759 mmHg 64%
    12:00 +26°C° 0 mm 4 mps 759 mmHg 64%
    13:00 +26°C° 0 mm 5 mps 759 mmHg 65%
    14:00 +27°C° 0 mm 5 mps 759 mmHg 65%
    15:00 +27°C° 0 mm 5 mps 758 mmHg 64%
    16:00 +27°C° 0 mm 5 mps 758 mmHg 62%
    17:00 +27°C° 0 mm 5 mps 758 mmHg 61%
    18:00 +25°C° 0 mm 4 mps 758 mmHg 71%
    19:00 +21°C° 0 mm 3 mps 759 mmHg 81%
    20:00 +19°C° 0 mm 2 mps 759 mmHg 92%
    21:00 +19°C° 0 mm 2 mps 759 mmHg 93%
    22:00 +18°C° 0 mm 2 mps 759 mmHg 94%
    23:00 +18°C° 0 mm 2 mps 758 mmHg 95%

    28 July, Sunday

    Time Temperature Precipitation Wind Pressure Humidity
    00:00 +18°C° 0 mm 2 mps 758 mmHg 94%
    01:00 +17°C° 0 mm 2 mps 758 mmHg 94%
    02:00 +17°C° 0 mm 2 mps 757 mmHg 94%
    03:00 +17°C° 0 mm 2 mps 757 mmHg 94%
    04:00 +17°C° 0 mm 2 mps 758 mmHg 94%
    05:00 +17°C° 0 mm 2 mps 758 mmHg 94%
    06:00 +19°C° 0 mm 3 mps 758 mmHg 82%
    07:00 +22°C° 0 mm 3 mps 758 mmHg 70%
    08:00 +25°C° 0 mm 4 mps 758 mmHg 58%
    09:00 +27°C° 0 mm 4 mps 758 mmHg 51%
    10:00 +29°C° 0 mm 4 mps 758 mmHg 45%
    11:00 +31°C° 0 mm 3 mps 758 mmHg 38%
    12:00 +32°C° 0 mm 4 mps 757 mmHg 38%
    13:00 +32°C° 0 mm 5 mps 757 mmHg 37%
    14:00 +32°C° 0 mm 6 mps 756 mmHg 37%
    15:00 +30°C° 0 mm 6 mps 756 mmHg 41%
    16:00 +28°C° 0 mm 6 mps 756 mmHg 44%
    17:00 +26°C° 0 mm 7 mps 757 mmHg 48%
    18:00 +23°C° 0 mm 6 mps 757 mmHg 56%
    19:00 +21°C° 0 mm 5 mps 757 mmHg 64%
    20:00 +18°C° 0 mm 4 mps 758 mmHg 73%
    21:00 +18°C° 0 mm 3 mps 758 mmHg 77%
    22:00 +17°C° 0 mm 3 mps 758 mmHg 82%
    23:00 +16°C° 0 mm 3 mps 758 mmHg 87%
    Show more